Starlink 4467

operational
NORAD ID: 53686 Int'l Des: 2022-105 Owner: SPXS Country: US Constellation: starlink
LEOCIRCULARRETROGRADESSO

Über Starlink 4467

Beschreibung wird geladen...

Live-Position

3D-Globus wird geladen...

Nächste Überflüge

Höhenverlauf

Altitude vs Time

uPlot chart will show altitude changes over time

Zweizeiliger Elementsatz

1 53686U 22105AQ 25261.13382009 .00000027 00000-0 66235-5 0 9996
2 53686 97.6033 141.3445 0002426 45.5528 314.5895 15.01260335167356
Epoch: 18. Sept. 2025 • Age: 18 hours

Aktueller Status

Höhe 574.5 km
Geschwindigkeit 7.58 km/s
Subsatellitenpunkt 75.31°N, 156.36°E
Startdatum 31. Aug. 2022
Alter 3 years
Typ internet

Technische Details

Klassifizierung Payload
Masse 300.00 kg
Trockenmasse 290.00 kg
Gesamtmasse 300.00 kg
Länge 0.20 m
Durchmesser 2.80 m
Spannweite 9.00 m
Form Box + pan
Hersteller SPXS
Bus-Typ Starlink
Phasenstatus In Orbit
Besitzer/Staat SPXS/US

Große Konstellationen

Loading constellations...